www.pogodaiklimat.ru

Погода и климат >> Архив погоды >> Канада >> Онтарио >> Сарния


ПОГОДА в Сарнии

  • Прогноз погоды в Сарнии
  • Монитор погоды в Сарнии

АРХИВ ПОГОДЫ в Сарнии

Время (UTC), дата Ветер
(напр.,м/с)
 
Видим.   Явления Облачность Т
(С)
Тd
(С)
f
(%)
Тe
(С)
Тes
(С)
Комфортность P
(гПа)
Po
(гПа)
Тmin
(С)
Tmax
(С)
R
(мм)
R24
(мм)
S
(см)
09 19.03 З 2 16 км 3/0
[]
-1.3 -6.3 69 -5 -5 1028.0 1005.4
12 19.03 З 2 16 км ясно -1.6 -6.4 70 -5 -5 1029.3 1006.6 -2.6 +4.2
15 19.03 З 2 16 км ясно +4.3 -4.9 51 +2 +2 1030.2 1007.6
18 19.03 ЮЗ 2 16 км ясно +5.5 -6.6 41 +4 +4 1029.7 1007.1 -2.6 +6.4
21 19.03 СВ 2 16 км 9/9 1500 м
[]
+6.0 -4.1 48 +4 +4 1027.6 1005.1
00 20.03 Ю 4 16 км ясно +4.2 -2.0 64 +1 +1 1026.5 1004.0 -2.6 +8.0
03 20.03 Ю 4 16 км ясно +1.1 -2.3 78 -4 -4 1025.9 1003.5
06 20.03 Ю 3 16 км ясно -0.3 -2.7 84 -5 -5 1025.3 1002.9 -2.6 +8.0
09 20.03 Ю 4 14 км ясно -1.0 -3.2 85 -6 -6 1024.0 1001.6
12 20.03 Ю 4 14 км ясно -0.7 -3.0 84 -6 -6 1023.4 1001.0 -1.4 +8.0
15 20.03 Ю 6 16 км 5/5 1500 м
[]
+6.1 -1.2 59 +2 +2 1022.1 999.8
18 20.03 Ю 7 16 км 5/0
[]
+9.1 -1.4 48 +6 +6 1019.8 997.6 -1.4 +9.6
21 20.03 ЮЗ 8 11 км слаб. дождь 10/10 600 м
[]
+4.8 +1.8 81 -1 -1 1018.3 996.0
00 21.03 ЮВ 5 14 км слаб. дождь {осадки} 10/10 300 м
[]
+2.9 +1.9 93 -3 -3 1017.5 995.2 -1.4 +9.6 2
03 21.03 ЮВ 6 14 км слаб. дождь 10/10 600 м
[]
+2.5 +1.6 94 -3 -3 1016.3 994.1
06 21.03 Ю 6 8000 м дымка {осадки} 10/10 300 м
[]
+3.4 +2.7 95 -2 -2 1014.4 992.4 -1.4 +9.6 0.8 201
09 21.03 Ю 3 4000 м дымка {осадки} 10/10 200 м
[]
+3.2 +2.8 97 -1 -1 1012.9 990.8
12 21.03 Ю 2 2800 м дымка {осадки} 10/10 50 м
[]
+3.0 +2.7 98 -0 -0 1013.1 990.9 +2.4 +9.6 0.3
15 21.03 З 2 500 м туман н/о +4.1 +4.0 99 +2 +2 1013.0 990.9
18 21.03 С 3 14 км 10/10 300 м
[]
+5.1 +3.5 89 +2 +2 1012.5 990.4 +2.4 +6.2
21 21.03 С 2 4800 м дымка 10/10 50 м
[]
+3.2 +2.6 96 -0 -0 1011.2 989.1
00 22.03 З 4 16 км 10/10 600 м
[]
+3.9 +0.4 78 -0 -0 1011.4 989.3 +2.9 +6.2
03 22.03 З 3 16 км 10/10 600 м
[]
+3.6 +0.7 81 -0 -0 1010.9 988.8
06 22.03 З 3 16 км 9/9 1000 м
[]
+2.0 -0.4 84 -2 -2 1009.4 987.4 +2.0 +6.2
09 22.03 З 3 16 км 10/0 2000 м
[]
+2.1 -0.7 82 -2 -2 1007.1 985.1
12 22.03 СЗ 7 16 км 10/10 600 м
[]
+1.4 -0.5 87 -5 -5 1008.4 986.3 +1.3 +6.2
15 22.03 С 11 16 км 5/5 1500 м
[]
+2.6 -1.0 77 -5 -5 1010.7 988.6
18 22.03 С 12 16 км 10/10 1000 м
[]
+2.3 -1.5 76 -6 -6 1012.6 990.4 +1.3 +3.6
21 22.03 С 12 16 км 10/10 600 м
[]
-1.0 -5.2 73 -10 -10 1015.0 992.7
00 23.03 С 11 16 км ясно -1.1 -6.3 68 -10 -10 1017.6 995.2 -1.2 +3.6
03 23.03 С 10 16 км 3/3 1000 м
[]
-0.6 -6.8 63 -8 -8 1019.7 997.3
06 23.03 С 11 16 км 10/10 600 м
[]
-1.3 -7.3 64 -10 -10 1020.7 998.3 -1.4 +3.6 192
09 23.03 СЗ 6 16 км 10/10 600 м
[]
-2.2 -6.7 71 -9 -9 1021.9 999.3
12 23.03 СЗ 7 16 км 10/10 600 м
[]
-2.9 -7.3 72 -10 -10 1024.2 1001.6 -3.2 +3.6
15 23.03 СЗ 5 16 км ясно -0.9 -6.5 66 -7 -6 1026.2 1003.6
18 23.03 С 3 16 км ясно +1.9 -5.9 56 -2 -1 1026.1 1003.5 -3.2 +2.0
21 23.03 С 3 16 км ясно +5.5 -6.1 43 +3 +4 1024.7 1002.2
00 24.03 Ю 1 16 км ясно +3.8 -6.2 48 +3 +3 1023.7 1001.2 -3.2 +6.0
03 24.03 Ю 3 16 км ясно +0.1 -5.2 67 -4 -4 1023.6 1001.1
06 24.03 Ю 3 16 км ясно -1.4 -4.4 80 -6 -6 1022.9 1000.4 -3.2 +6.0 71
09 24.03 ЮЗ 3 16 км ясно -0.5 -4.9 72 -5 -5 1021.9 999.5
12 24.03 Ю 4 16 км 5/0
[]
+1.3 -3.9 68 -3 -3 1021.8 999.4 -3.2 +6.0
15 24.03 ЮЗ 4 16 км 5/0
[]
+6.8 -2.3 52 +4 +4 1020.7 998.4
18 24.03 З 5 16 км 9/0
[]
+11.4 -1.2 42 +9 +10 1018.6 996.4 -3.2 +11.6
21 24.03 С 4 16 км 10/0
[]
+11.4 -0.4 44 +10 +10 1017.4 995.3
00 25.03 СВ 5 16 км 10/0
[]
+1.9 -0.5 84 -3 -3 1019.4 997.0 -3.2 +13.0
03 25.03 С 5 16 км ясно -0.2 -1.6 90 -6 -6 1021.5 999.2
06 25.03 С 8 16 км ясно -0.9 -4.3 78 -9 -9 1021.9 999.7 -3.2 +13.0 61
09 25.03 СВ 7 16 км 10/10 1500 м
[]
-0.3 -6.8 61 -7 -7 1023.1 1000.8
12 25.03 СВ 8 16 км ясно -1.0 -6.4 67 -9 -9 1024.6 1002.1 -1.7 +13.0
15 25.03 С 6 16 км ясно +0.7 -6.4 59 -5 -5 1025.7 1003.1
18 25.03 С 6 16 км ясно +0.9 -8.6 49 -5 -4 1026.2 1003.6 -1.7 +1.7
21 25.03 С 7 16 км ясно -0.1 -10.4 46 -6 -6 1025.9 1003.3
00 26.03 СВ 3 16 км ясно -2.5 -9.5 59 -7 -7 1026.4 1003.7 -2.6 +1.7
03 26.03 С 1 16 км ясно -3.1 -8.9 64 -5 -5 1027.3 1004.6

 

Местоположение метеостанции Сарния (Онтарио, Канада): широта 79.78 долгота -103.50 высота над уровнем моря 58 м.

В архиве по умолчанию представлена погода в Сарнии за последнюю неделю. Архивные данные за месяц целиком и за предыдущие месяцы, начиная с января 2011 года, Вы можете получить, выбрав интересующий диапазон дат из раскрывающегося списка и нажав кнопку "Ввод!".


*Определитесь, кто Вы:
робот инопланетянин человек

Внимание! Время в таблицах - всемирное. Для получения местного времени необходимо прибавить поправку, которая равна -7 ч.

Смотрите также архив погоды в соседних городах и на ближайших метеорологических станциях:

Погода в Исачсене (Нунавут, Канада) (111 км)
Погода в Юрике (Нунавут, Канада) (343 км)
Погода в Юрике (Нунавут, Канада) (343 км)
Погода в Моулд Бэй (Северо-Западные территории, Канада) (534 км)
Погода в Ресольют Бэй (Нунавут, Канада) (599 км)
Погода в Аэропорту Ресольют Бэй (Нунавут, Канада) (599 км)
Погода на Острове Стефанссон (Нунавут, Канада) (670 км)
Погода в Национальном парке Олавик (Северо-Западные территории, Канада) (745 км)
Погода в Алерте (Нунавут, Канада) (747 км)
Погода Kitsissut (Гренландия) (765 км)

Пояснения к столбцам:

Ветер - указаны скорость ветра в м/с - средняя за 10 мин, порывы в срок и между сроками (в фигурных скобках) и направление, откуда дует ветер: С - северный, СВ - северо-восточный, В - восточный, ЮВ - юго-восточный, Ю - южный, ЮЗ - юго-западный, З - западный, СЗ - северо-западный.
Видимость - горизонтальная дальность видимости в метрах или километрах. При видимости от 1 до 10 км при отсутствии осадков обычно наблюдается дымка, при ухудшении видимости до 1 км и менее - туман. В сухую погоду видимость может ухудшаться дымом, пылью или мглою.
Явления - указаны атмосферные явления, наблюдавшиеся в срок или в последний час перед сроком; фигурными скобками обозначены явления, наблюдавшиеся между сроками (за 1-3 часа до срока); квадратными скобками обозначены град или гололедные отложения с указанием их диаметра в мм.
Облачность - указаны через наклонную черту общая и нижняя облачность в баллах и высота нижней границы облаков в метрах; квадратными скобками обозначены формы облаков: Ci - перистые, Cs - перисто-слоистые, Cc - перисто-кучевые, Ac - высококучевые, As - высокослоистые, Sc - слоисто-кучевые, Ns - слоисто-дождевые, Cu - кучевые, Cb - кучево-дождевые. Подробнее классификацию облаков см. в Атласе облаков (PDF).
T - Температура воздуха - температура, измеренная на высоте 2 м над землей.
Td - Температура точки росы - температура, при понижении до которой содержащийся в воздухе водяной пар достигнет насыщения.
f - Относительная влажность воздуха - влажноcть воздуха, измеренная на высоте 2 м над землей.
Te - Эффективная температура - температура, которую ощущает одетый по сезону человек в тени. Характеристика душности погоды. При расчете учитывается влияние влажности воздуха и скорости ветра на теплоощущения человека.
Tes - Эффективная температура на солнце - температура, которую ощущает человек, с поправкой на солнечный нагрев. Характеристика знойности погоды. Зависит от высоты солнца над горизонтом, облачности и скорости ветра. Ночью, в пасмурную погоду, а также при ветре 12 м/с и более поправка равна нулю.
P - Атмосферное давление - приведенное к уровню моря атмосферное давление.
Po - Атмосферное давление - измеренное на уровне метеостанции атмосферное давление.
Tmin - Минимальная температура - минимум температуры воздуха на высоте 2 м над землей.
Tmax - Максимальная температура - максимум температуры воздуха на высоте 2 м над землей.
R - Количество осадков - Количество выпавших осадков за период времени, мм. При наведении курсора мыши на число - период времени, за который выпало указанное количество осадков.
R24 - Количество осадков - Количество выпавших осадков за 24 часа, мм.
S - Снежный покров - Высота снежного покрова, см. При наведении курсора мыши на число - состояние снежного покрова и степень покрытия местности в баллах.